Voltar ao catálogo

FENGYUN 1C DEB

LostSSO
NORAD 31534·DEBRIS·🇨🇳 China

Lançado May 10, 1999 de Taiyuan Satellite Launch Center

Loading…

Próximas Passagens (próximas 24 horas)

TLE

ObsoletoSource: Space-Track

Época: Nov 9, 2022, 06:25 UTC

1 31534U 99025BXZ 22313.26795028  .00009026  00000-0  32494-2 0  9992
2 31534  99.0087 129.7420 0018705 103.1746 257.1526 14.33848529807852

Acompanhe FENGYUN 1C DEB em tempo real com AllMySat

Download on the App Store